Location: Tel Aviv
(32.0670°N, 34.7670°E)
Time: 14:00:09
(UTC+02:00)

ISS - Visible Passes

Search period start: 29 November 2022 00:00
Search period end: 09 December 2022 00:00
Orbit: 411 x 420 km, 51.6° (Epoch: 29 November)

Date Brightness Start Highest point End Pass type
(mag) Time Alt. Az. Time Alt. Az. Time Alt. Az.
04 Dec -1.7 18:07:48 10° NNW 18:08:53 17° N 18:08:53 17° N visible
05 Dec -2.0 17:19:29 10° N 17:21:41 16° NE 17:22:48 14° ENE visible
05 Dec -0.6 18:55:23 10° WNW 18:55:45 12° WNW 18:55:45 12° WNW visible
06 Dec -3.9 18:06:23 10° NW 18:09:42 89° SW 18:10:02 70° SE visible
07 Dec -3.4 17:17:36 10° NNW 17:20:47 43° NE 17:23:57 10° ESE visible
07 Dec -0.6 18:55:51 10° WSW 18:57:09 12° SW 18:57:51 11° SW visible
08 Dec -1.3 18:05:41 10° WNW 18:08:23 23° SW 18:11:04 10° S visible
